Change the Weather History Date:

Monday, March 31, 2014

  Actual Average Record
Temperature  
Mean Temperature 51 °F 52 °F  
Max Temperature 71 °F 64 °F 84 °F (1963)
Min Temperature 30 °F 40 °F 18 °F (1969)
Degree Days  
Heating Degree Days 14 13  
Month to date heating degree days 651 548  
Since 1 July heating degree days 4158 3825  
Cooling Degree Days 0 0  
Month to date cooling degree days 0 3  
Year to date cooling degree days 0 3  
Moisture  
Dew Point 30 °F    
Average Humidity 54    
Maximum Humidity 92    
Minimum Humidity 16    
Precipitation  
Precipitation 0.00 in 0.13 in 1.15 in (2002)
Month to date precipitation 5.17 4.05  
Year to date precipitation 11.68 11.30  
Sea Level Pressure  
Sea Level Pressure 30.14 in    
Wind  
Wind Speed 1 mph (East)    
Max Wind Speed 7 mph    
Max Gust Speed 14 mph    
Visibility 10 miles    
Events      
T = Trace of Precipitation, MM = Missing Value Source: NWS Daily Summary

Daily Weather History Graph

Daily Weather History Graph

Search for Another Location

Airport or City:

Trip Planner

Search our weather history database for the weather conditions in past years. The results will help you decide how hot, cold, wet, or windy it might be!

Date:

Astronomy

Mar. 31, 2014 Rise Set
Actual Time 7:23 AM EDT 7:57 PM EDT
Civil Twilight 6:57 AM EDT 8:24 PM EDT
Nautical Twilight 6:26 AM EDT 8:54 PM EDT
Astronomical Twilight 5:55 AM EDT 9:26 PM EDT
Moon 7:47 AM EDT (3/31) 9:13 PM EDT (3/31)
Length of Visible Light 13h 26m
Length of Day
12h 34m
New Moon, 1% of the Moon is Illuminated
Mar 31
New Moon
Apr 7
First Quarter
Apr 15
Full
Apr 22
Last Quarter
Apr 29
New

Hourly Weather History & Observations

Time (EDT) Temp. Windchill Dew Point Humidity Pressure Visibility Wind Dir Wind Speed Gust Speed Precip Events Conditions
12:53 AM 36.0 °F 33.3 °F 30.9 °F 82% 30.19 in 10.0 mi ENE 3.5 mph - N/A   Clear
1:53 AM 35.1 °F - 30.0 °F 82% 30.18 in 10.0 mi Calm Calm - N/A   Clear
2:53 AM 34.0 °F - 30.0 °F 85% 30.18 in 10.0 mi Calm Calm - N/A   Clear
3:53 AM 34.0 °F - 28.9 °F 82% 30.17 in 10.0 mi Calm Calm - N/A   Clear
4:53 AM 32.0 °F - 28.0 °F 85% 30.17 in 10.0 mi Calm Calm - N/A   Clear
5:53 AM 32.0 °F - 28.0 °F 85% 30.19 in 9.0 mi Calm Calm - N/A   Clear
6:53 AM 30.9 °F - 28.0 °F 89% 30.20 in 10.0 mi Calm Calm - N/A   Clear
7:53 AM 30.9 °F - 28.0 °F 89% 30.22 in 9.0 mi Calm Calm - N/A   Clear
8:53 AM 36.0 °F - 32.0 °F 86% 30.23 in 10.0 mi Calm Calm - N/A   Clear
9:53 AM 43.0 °F 41.3 °F 32.0 °F 65% 30.24 in 10.0 mi SE 3.5 mph - N/A   Clear
10:53 AM 51.1 °F - 33.1 °F 50% 30.22 in 10.0 mi Variable 4.6 mph - N/A   Clear
11:53 AM 55.9 °F - 28.9 °F 36% 30.22 in 10.0 mi SSE 5.8 mph - N/A   Clear
12:53 PM 60.1 °F - 27.0 °F 28% 30.19 in 10.0 mi Variable 3.5 mph - N/A   Clear
1:53 PM 64.0 °F - 26.1 °F 24% 30.16 in 10.0 mi ENE 6.9 mph - N/A   Clear
2:53 PM 68.0 °F - 28.0 °F 22% 30.13 in 10.0 mi NE 4.6 mph - N/A   Clear
3:53 PM 69.1 °F - 27.0 °F 21% 30.10 in 10.0 mi Calm Calm - N/A   Clear
4:53 PM 71.1 °F - 26.1 °F 19% 30.09 in 10.0 mi ENE 3.5 mph - N/A   Clear
5:53 PM 70.0 °F - 21.9 °F 16% 30.07 in 10.0 mi Calm Calm - N/A   Clear
6:53 PM 70.0 °F - 24.1 °F 18% 30.06 in 10.0 mi Calm Calm - N/A   Clear
7:53 PM 66.0 °F - 28.0 °F 24% 30.06 in 10.0 mi Calm Calm - N/A   Clear
8:53 PM 61.0 °F - 33.1 °F 35% 30.06 in 10.0 mi Calm Calm - N/A   Clear
9:53 PM 55.9 °F - 34.0 °F 44% 30.06 in 10.0 mi Calm Calm - N/A   Clear
10:53 PM 52.0 °F - 37.9 °F 59% 30.04 in 10.0 mi Calm Calm - N/A   Clear
11:53 PM 50.0 °F - 37.9 °F 63% 30.04 in 10.0 mi Calm Calm - N/A   Clear